CW3642 Weather Reports


Display with metric or nautical units.
time (UTC)temp
F
wind
direction
speed
MPH
gust
MPH
rain 1hr
in
rain 24hr
in
rain mn
in
humidity
%
barometer
mb
20260903130759 65 67 0.0 0.0 0.00 0.01 0.00 93 1014.5
20260903130259 65 80 0.0 0.0 0.00 0.01 0.00 93 1014.4
20260903125759 64 40 0.0 0.0 0.00 0.02 0.00 93 1014.4
20260903125259 63 40 0.0 0.0 0.00 0.03 0.00 93 1014.6
20260903124759 63 63 0.0 0.0 0.00 0.04 0.00 93 1014.5
20260903124259 62 63 0.0 0.0 0.00 0.05 0.00 93 1014.5
20260903123759 61 67 0.0 0.0 0.00 0.08 0.00 93 1014.5
20260903123259 61 67 0.0 0.0 0.00 0.08 0.00 93 1014.6
20260903122729 60 330 0.0 0.0 0.00 0.09 0.00 93 1014.6
20260903122259 59 290 0.0 0.0 0.00 0.09 0.00 93 1014.6
20260903121758 58 290 0.0 0.0 0.00 0.09 0.00 93 1014.5
20260903121259 58 290 0.0 0.0 0.00 0.09 0.00 93 1014.3
20260903120759 57 290 0.0 0.0 0.00 0.09 0.00 93 1014.3
20260903120258 57 290 0.0 0.0 0.00 0.09 0.00 93 1014.2
20260903115758 57 290 0.0 0.0 0.00 0.09 0.00 93 1014.4
20260903114759 57 290 0.0 0.0 0.00 0.09 0.00 94 1014.6
20260903114259 57 290 0.0 0.0 0.00 0.09 0.00 93 1014.5
20260903113758 56 290 0.0 0.0 0.00 0.09 0.00 94 1014.4
20260903113259 56 290 0.0 0.0 0.00 0.09 0.00 94 1014.4
20260903112759 57 290 0.0 0.0 0.00 0.09 0.00 94 1014.2
20260903111759 56 290 0.0 0.0 0.00 0.09 0.00 94 1014.2
20260903111228 57 290 0.0 0.0 0.00 0.09 0.00 94 1014.2
20260903110759 56 290 0.0 0.0 0.00 0.09 0.00 94 1014.2
20260903110258 56 290 0.0 0.0 0.00 0.09 0.00 94 1014.1
20260903105758 57 290 0.0 0.0 0.00 0.09 0.00 94 1014.1
20260903105258 57 290 0.0 0.0 0.00 0.09 0.00 94 1014.1
20260903104758 57 290 0.0 0.0 0.00 0.09 0.00 94 1014.0
20260903104259 57 290 0.0 0.0 0.00 0.09 0.00 94 1014.0
20260903103259 56 290 0.0 0.0 0.00 0.09 0.00 94 1014.1
20260903102758 56 290 0.0 0.0 0.00 0.09 0.00 94 1014.2
20260903102258 56 290 0.0 0.0 0.00 0.09 0.00 94 1013.9
20260903101759 56 290 0.0 0.0 0.00 0.09 0.00 94 1014.0
20260903101259 56 290 0.0 0.0 0.00 0.09 0.00 94 1014.0
20260903100759 56 290 0.0 0.0 0.00 0.09 0.00 94 1014.0
20260903095239 56 290 0.0 0.0 0.00 0.09 0.00 94 1013.9
20260903094739 56 290 0.0 0.0 0.00 0.09 0.00 94 1013.9
20260903094239 56 290 0.0 0.0 0.00 0.09 0.00 94 1013.9
20260903093739 56 290 0.0 0.0 0.00 0.09 0.00 94 1014.0
20260903093239 56 290 0.0 0.0 0.00 0.09 0.00 94 1014.0
20260903092739 56 290 0.0 0.0 0.00 0.09 0.00 94 1014.1
20260903092239 56 290 0.0 0.0 0.00 0.09 0.00 94 1014.1
20260903091739 56 290 0.0 0.0 0.00 0.09 0.00 94 1014.0
20260903091239 56 290 0.0 0.0 0.00 0.09 0.00 94 1013.9
20260903090739 56 290 0.0 0.0 0.00 0.09 0.00 94 1013.9
20260903090239 56 290 0.0 0.0 0.00 0.09 0.00 94 1013.8
20260903085739 57 290 0.0 0.0 0.00 0.09 0.00 94 1013.8
20260903085239 57 290 0.0 0.0 0.00 0.09 0.00 94 1013.8
20260903084739 57 290 0.0 0.0 0.00 0.09 0.00 94 1013.8
20260903082739 57 290 0.0 0.0 0.00 0.09 0.00 94 1013.8
20260903082239 57 290 0.0 0.0 0.00 0.09 0.00 94 1013.9
20260903081739 57 290 0.0 0.0 0.00 0.09 0.00 94 1013.9
20260903081239 57 290 0.0 0.0 0.00 0.09 0.00 94 1014.0
20260903080239 57 290 0.0 0.0 0.00 0.09 0.00 94 1014.0
20260903075739 57 290 0.0 0.0 0.00 0.09 0.00 94 1014.0
20260903075239 57 290 0.0 0.0 0.00 0.09 0.00 94 1013.9
20260903074739 57 290 0.0 0.0 0.00 0.09 0.00 94 1013.8
20260903074239 57 290 0.0 0.0 0.00 0.09 0.00 94 1013.8
20260903073739 57 290 0.0 0.0 0.00 0.09 0.00 94 1013.7
20260903073239 57 290 0.0 0.0 0.00 0.09 0.00 94 1013.6
20260903072739 57 290 0.0 0.0 0.00 0.09 0.00 94 1013.6
20260903071739 57 290 0.0 0.0 0.00 0.09 0.00 94 1013.5
20260903070739 57 290 0.0 0.0 0.00 0.09 0.00 94 1013.5
20260903070239 57 290 0.0 0.0 0.00 0.09 0.00 94 1013.4
20260903065739 57 290 0.0 0.0 0.00 0.09 0.00 94 1013.3
20260903065239 57 290 0.0 0.0 0.00 0.09 0.00 94 1013.4
20260903064739 57 290 0.0 0.0 0.00 0.09 0.00 94 1013.5
20260903064239 57 290 0.0 0.0 0.00 0.09 0.00 94 1013.5
20260903063739 57 290 0.0 0.0 0.00 0.09 0.00 94 1013.4
20260903063239 57 290 0.0 0.0 0.00 0.09 0.00 94 1013.4
20260903062738 57 290 0.0 0.0 0.00 0.09 0.00 94 1013.3
20260903062238 57 290 0.0 0.0 0.00 0.09 0.00 94 1013.5
20260903061739 57 290 0.0 0.0 0.00 0.09 0.00 94 1013.4
20260903061239 58 290 0.0 0.0 0.00 0.09 0.00 94 1013.5
20260903060739 58 290 0.0 0.0 0.00 0.09 0.00 94 1013.5
20260903055239 58 290 0.0 0.0 0.00 0.09 0.00 94 1013.5
20260903054738 58 290 0.0 0.0 0.00 0.09 0.00 94 1013.5
20260903054238 58 290 0.0 0.0 0.00 0.09 0.00 94 1013.4
20260903053739 58 290 0.0 0.0 0.00 0.09 0.00 94 1013.4
20260903053239 58 290 0.0 0.0 0.00 0.09 0.00 94 1013.4
20260903052739 58 290 0.0 0.0 0.00 0.09 0.00 94 1013.5
20260903052239 58 290 0.0 0.0 0.00 0.09 0.00 94 1013.4
20260903051739 58 290 0.0 0.0 0.00 0.09 0.00 94 1013.5
20260903050739 58 290 0.0 0.0 0.00 0.09 0.00 94 1013.5
20260903045239 58 290 0.0 0.0 0.00 0.09 0.00 94 1013.3
20260903044239 58 290 0.0 0.0 0.00 0.09 0.00 94 1013.4
20260903042739 59 290 0.0 0.0 0.00 0.09 0.00 94 1013.2
20260903041738 59 290 0.0 0.0 0.00 0.09 0.00 94 1013.2
20260903041239 59 290 0.0 0.0 0.00 0.09 0.00 94 1013.2
20260903040739 59 290 0.0 0.0 0.00 0.09 0.00 94 1013.1
20260903040239 59 290 0.0 0.0 0.00 0.09 0.00 94 1013.1
20260903035739 59 290 0.0 0.0 0.00 0.09 0.00 94 1013.1
20260903035238 59 290 0.0 0.0 0.00 0.09 0.09 94 1013.0
20260903034239 59 290 0.0 0.0 0.00 0.09 0.09 94 1012.9
20260903033239 60 290 0.0 0.0 0.00 0.09 0.09 94 1012.8
20260903032239 60 290 0.0 0.0 0.00 0.09 0.09 94 1012.7
20260903031739 60 290 0.0 0.0 0.00 0.09 0.09 94 1012.8
20260903030739 60 290 0.0 0.0 0.00 0.09 0.09 94 1012.8
20260903030239 60 290 0.0 0.0 0.00 0.09 0.09 94 1012.8
20260903025739 60 290 0.0 0.0 0.00 0.09 0.09 93 1012.8
20260903025239 60 290 0.0 0.0 0.00 0.09 0.09 93 1012.8
20260903024739 61 290 0.0 0.0 0.00 0.09 0.09 93 1012.8
20260903024239 61 290 0.0 0.0 0.00 0.09 0.09 93 1012.7
20260903023739 61 290 0.0 0.0 0.00 0.09 0.09 93 1012.7
20260903022738 61 290 0.0 0.0 0.00 0.09 0.09 93 1012.7
20260903022238 61 290 0.0 0.0 0.00 0.09 0.09 93 1012.7
20260903015749 62 290 0.0 0.0 0.00 0.09 0.09 92 1012.5
20260903014749 63 290 0.0 0.0 0.00 0.09 0.09 92 1012.5
20260903013748 63 290 0.0 0.0 0.00 0.09 0.09 91 1012.5
20260903013248 63 290 0.0 0.0 0.00 0.09 0.09 91 1012.5
20260903012748 63 290 0.0 0.0 0.00 0.09 0.09 91 1012.5
20260903012249 64 290 0.0 0.0 0.00 0.09 0.09 91 1012.4
20260903011748 64 290 0.0 0.0 0.00 0.09 0.09 90 1012.4
20260903011248 64 290 0.0 0.0 0.00 0.09 0.09 90 1012.3
20260903010749 65 290 0.0 0.0 0.00 0.09 0.09 90 1012.4
20260903010248 65 290 0.0 0.0 0.00 0.09 0.09 89 1012.3
20260903005749 65 290 0.0 0.0 0.00 0.09 0.09 88 1012.3
20260903005249 66 290 0.0 0.0 0.00 0.09 0.09 88 1012.2
20260903004749 66 290 0.0 0.0 0.00 0.09 0.09 87 1012.1
20260903004249 67 290 0.0 0.0 0.00 0.09 0.09 87 1012.1
20260903003248 67 290 0.0 0.0 0.00 0.09 0.09 85 1011.8
20260903002748 68 290 0.0 0.0 0.00 0.09 0.09 85 1012.0
20260903002248 68 290 0.0 0.0 0.00 0.09 0.09 84 1012.1
20260903001748 69 290 0.0 0.0 0.00 0.09 0.09 83 1012.2
20260903000249 70 290 0.0 0.0 0.00 0.09 0.09 81 1012.1
20260902235748 70 290 0.0 0.0 0.00 0.09 0.09 80 1012.2
20260902235248 70 290 0.0 0.0 0.00 0.09 0.09 79 1012.2
20260902234248 71 290 0.0 0.0 0.00 0.09 0.09 79 1012.4
20260902233748 71 290 0.0 0.0 0.00 0.09 0.09 78 1012.4
20260902233248 71 290 0.0 0.0 0.00 0.09 0.09 76 1012.3
20260902232748 72 294 0.0 0.0 0.00 0.09 0.09 74 1012.4
20260902232249 72 294 0.0 0.0 0.00 0.09 0.09 75 1012.4
20260902231749 72 294 0.0 0.0 0.00 0.09 0.09 76 1012.4
20260902231248 72 294 0.0 0.0 0.00 0.09 0.09 76 1012.3
20260902230748 72 294 0.0 0.0 0.00 0.09 0.09 75 1012.3
20260902230248 73 294 0.0 0.0 0.00 0.09 0.09 73 1012.4
20260902225748 73 250 0.0 0.0 0.00 0.09 0.09 73 1012.5
20260902225249 73 300 0.0 0.0 0.00 0.09 0.09 74 1012.4
20260902224748 73 327 0.0 0.0 0.00 0.09 0.09 73 1012.4
20260902224248 74 232 0.0 0.0 0.00 0.09 0.09 76 1012.4
20260902223748 74 240 0.0 0.0 0.00 0.09 0.09 73 1012.4
20260902223249 74 321 0.0 0.0 0.00 0.09 0.09 74 1012.4
20260902222748 74 281 0.0 0.0 0.00 0.09 0.09 72 1012.4
20260902222248 74 13 0.0 0.0 0.00 0.09 0.09 73 1012.3
20260902221749 75 342 0.0 0.0 0.00 0.09 0.09 72 1012.3
20260902221248 75 351 0.0 0.0 0.00 0.09 0.09 71 1012.4
20260902215741 77 275 0.0 0.0 0.00 0.09 0.09 68 1012.5
20260902215241 77 273 0.0 0.0 0.00 0.09 0.09 67 1012.5
20260902214741 77 291 0.0 0.0 0.00 0.09 0.09 67 1012.5
20260902213741 78 302 0.0 0.0 0.00 0.09 0.09 65 1012.4
20260902213241 78 280 0.0 0.0 0.00 0.09 0.09 65 1012.5
20260902212741 78 340 0.0 0.0 0.00 0.09 0.09 65 1012.6
20260902212241 78 336 0.0 0.0 0.00 0.09 0.09 63 1012.6
20260902211741 78 235 0.0 0.0 0.00 0.09 0.09 63 1012.6
20260902211241 78 219 0.0 0.0 0.00 0.09 0.09 63 1012.5
20260902210241 78 291 0.0 0.0 0.00 0.09 0.09 64 1012.6
20260902205741 78 304 0.0 0.0 0.00 0.09 0.09 66 1012.5
20260902205241 78 285 0.0 0.0 0.00 0.09 0.09 62 1012.5
20260902204741 78 283 0.0 0.0 0.00 0.09 0.09 62 1012.5
20260902204241 78 306 0.0 0.0 0.00 0.09 0.09 65 1012.6
20260902203741 78 279 0.0 0.0 0.00 0.09 0.09 65 1012.6
20260902202741 78 321 0.0 0.0 0.00 0.09 0.09 64 1012.8
20260902202241 78 265 0.0 0.0 0.00 0.09 0.09 65 1012.9
20260902200741 78 340 0.0 0.0 0.00 0.09 0.09 66 1012.9
20260902200241 78 300 0.0 0.0 0.00 0.09 0.09 67 1012.9
20260902195741 78 286 0.0 0.0 0.00 0.09 0.09 66 1012.9
20260902194741 78 242 0.0 0.0 0.00 0.09 0.09 68 1013.0
20260902194241 78 236 0.0 0.0 0.00 0.09 0.09 66 1013.1
20260902193741 78 295 0.0 0.0 0.00 0.09 0.09 69 1013.2
20260902193241 79 265 0.0 0.0 0.00 0.09 0.09 66 1013.3
20260902192741 79 277 0.0 0.0 0.00 0.09 0.09 63 1013.3
20260902192241 79 205 0.0 0.0 0.00 0.09 0.09 66 1013.3
20260902191741 79 221 0.0 0.0 0.00 0.09 0.09 66 1013.4
20260902191241 78 207 0.0 0.0 0.00 0.09 0.09 65 1013.2
20260902190741 78 269 0.0 0.0 0.00 0.09 0.09 67 1013.3
20260902190241 78 246 0.0 0.0 0.00 0.09 0.09 67 1013.3
20260902185741 78 316 0.0 0.0 0.00 0.09 0.09 68 1013.3
20260902184741 78 279 0.0 0.0 0.00 0.09 0.09 65 1013.6
20260902184241 78 275 0.0 0.0 0.00 0.09 0.09 67 1013.5
20260902183741 78 327 0.0 0.0 0.00 0.09 0.09 71 1013.5
20260902182741 78 296 0.0 0.0 0.00 0.09 0.09 72 1013.3
20260902182241 78 281 0.0 0.0 0.00 0.09 0.09 71 1013.4
20260902181741 77 242 0.0 0.0 0.00 0.09 0.09 74 1013.4
20260902180741 76 231 0.0 0.0 0.00 0.09 0.09 75 1013.4
20260902175803 76 273 0.0 0.0 0.00 0.09 0.09 73 1013.4
20260902175307 76 209 0.0 0.0 0.00 0.09 0.09 76 1013.4
20260902174733 75 241 0.0 0.0 0.00 0.09 0.09 77 1013.2
20260902174303 75 297 0.0 0.0 0.00 0.09 0.09 80 1013.4
20260902173733 75 281 0.0 0.0 0.00 0.09 0.09 78 1013.3
20260902171753 72 253 0.0 0.0 0.00 0.09 0.09 87 1013.2
20260902171253 72 236 0.0 0.0 0.00 0.09 0.09 86 1013.1
20260902170253 71 278 0.0 0.0 0.00 0.09 0.09 87 1012.9
20260902165753 71 161 0.0 0.0 0.00 0.09 0.09 88 1013.0
20260902165253 71 252 0.0 0.0 0.00 0.09 0.09 87 1013.0
20260902164753 71 220 0.0 0.0 0.00 0.09 0.09 88 1012.7
20260902164253 70 200 0.0 0.0 0.00 0.09 0.09 89 1012.7
20260902163753 70 222 0.0 0.0 0.00 0.09 0.09 90 1012.7
20260902163253 70 229 0.0 0.0 0.00 0.09 0.09 91 1012.6
20260902162753 70 229 0.0 0.0 0.00 0.09 0.09 91 1012.9
20260902162253 70 232 0.0 0.0 0.00 0.09 0.09 90 1013.2
20260902161753 70 215 0.0 0.0 0.00 0.09 0.09 91 1013.3
20260902161253 70 213 0.0 0.0 0.00 0.09 0.09 91 1013.3
20260902160753 69 214 0.0 0.0 0.00 0.09 0.09 91 1013.2
20260902155253 69 238 0.0 0.0 0.00 0.09 0.09 93 1013.0
20260902154753 69 254 0.0 0.0 0.00 0.09 0.09 94 1013.1
20260902154253 69 254 0.0 0.0 0.00 0.09 0.09 94 1012.9
20260902153753 69 327 0.0 0.0 0.00 0.09 0.09 94 1012.7
20260902153253 69 288 0.0 0.0 0.00 0.09 0.09 94 1012.9
20260902152753 69 246 0.0 0.0 0.00 0.09 0.09 94 1013.0
20260902152253 69 247 0.0 0.0 0.00 0.09 0.09 94 1013.1
20260902150253 68 286 0.0 0.0 0.00 0.09 0.09 94 1013.5
20260902145753 68 308 0.0 0.0 0.00 0.09 0.09 94 1013.7
20260902145253 68 252 0.0 0.0 0.00 0.09 0.09 94 1013.6
20260902144753 68 301 0.0 0.0 0.00 0.09 0.09 94 1013.7
20260902144253 68 309 0.0 0.0 0.00 0.09 0.09 94 1013.7
20260902143753 68 221 0.0 0.0 0.00 0.09 0.09 94 1013.6
20260902142753 68 268 0.0 0.0 0.00 0.09 0.09 94 1013.0
20260902142253 68 237 0.0 0.0 0.01 0.09 0.09 94 1012.7
20260902141753 68 247 0.0 0.0 0.01 0.09 0.09 93 1012.4
20260902141253 67 248 0.0 0.0 0.01 0.09 0.09 93 1012.1
20260902140753 66 190 0.0 0.0 0.01 0.09 0.09 93 1011.7
20260902135758 66 219 0.0 0.0 0.02 0.09 0.09 94 1011.7
20260902135258 65 233 0.0 0.0 0.03 0.09 0.09 94 1011.6
20260902134758 65 205 0.0 0.0 0.04 0.09 0.09 94 1011.6
20260902133758 65 189 0.0 0.0 0.08 0.09 0.09 94 1010.5
20260902133258 65 123 0.0 0.0 0.08 0.09 0.09 94 1010.5
20260902132758 65 163 0.0 0.0 0.09 0.09 0.09 94 1010.7
20260902132258 65 65 0.0 0.0 0.08 0.08 0.08 94 1011.7
20260902131758 66 82 0.0 0.0 0.08 0.08 0.08 94 1012.5
20260902131258 66 12 0.0 0.0 0.08 0.08 0.08 94 1012.5